Weather History for KWWD - March, 2014

Change the Weather History Date:

Monday, March 24, 2014

  Actual Average Record
Temperature  
Mean Temperature 28 °F -  
Max Temperature 33 °F 51 °F 64 °F (2001)
Min Temperature 23 °F 37 °F 23 °F (2014)
Degree Days  
Heating Degree Days 37    
Moisture  
Dew Point 10 °F    
Average Humidity 45    
Maximum Humidity 69    
Minimum Humidity 34    
Precipitation  
Precipitation 0.00 in - - ()
Sea Level Pressure  
Sea Level Pressure 30.20 in    
Wind  
Wind Speed 10 mph (NW)    
Max Wind Speed 16 mph    
Max Gust Speed 24 mph    
Visibility 10 miles    
Events      
Averages and records for this station are not official NWS values.
T = Trace of Precipitation, MM = Missing Value Source: NWS Daily Summary

Daily Weather History Graph

Daily Weather History Graph

Search for Another Location

Airport or City:

Trip Planner

Search our weather history database for the weather conditions in past years. The results will help you decide how hot, cold, wet, or windy it might be!

Date:

Astronomy

Mar. 24, 2014 Rise Set
Actual Time 6:56 AM EDT 7:15 PM EDT
Civil Twilight 6:30 AM EDT 7:42 PM EDT
Nautical Twilight 5:58 AM EDT 8:13 PM EDT
Astronomical Twilight 5:26 AM EDT 8:45 PM EDT
Moon 2:21 AM EDT (3/24) 12:41 PM EDT (3/24)
Length of Visible Light 13h 12m
Length of Day
12h 18m
Last Quarter, 43% of the Moon is Illuminated
Mar 24
Last Quarter
Mar 30
New
Apr 7
First Quarter
Apr 15
Full
Apr 22
Last Quarter

Hourly Weather History & Observations

Time (EDT) Temp. Windchill Dew Point Humidity Pressure Visibility Wind Dir Wind Speed Gust Speed Precip Events Conditions
12:15 AM 33.8 °F 26.4 °F 12.2 °F 41% 30.10 in 10.0 mi North 9.2 mph 16.1 mph N/A   Clear
12:35 AM 32.0 °F 23.6 °F 12.2 °F 44% 30.11 in 10.0 mi North 10.4 mph - N/A   Clear
12:55 AM 32.0 °F 21.6 °F 10.4 °F 41% 30.12 in 10.0 mi North 15.0 mph 21.9 mph N/A   Clear
1:15 AM 30.2 °F 21.9 °F 10.4 °F 44% 30.13 in 10.0 mi North 9.2 mph - N/A   Clear
1:35 AM 30.2 °F 22.6 °F 10.4 °F 44% 30.14 in 10.0 mi North 8.1 mph - N/A   Clear
1:55 AM 30.2 °F 20.2 °F 10.4 °F 44% 30.15 in 10.0 mi North 12.7 mph 19.6 mph N/A   Clear
2:15 AM 30.2 °F 20.2 °F 10.4 °F 44% 30.15 in 10.0 mi North 12.7 mph 21.9 mph N/A   Clear
2:35 AM 30.2 °F 18.9 °F 10.4 °F 44% 30.15 in 10.0 mi North 16.1 mph 19.6 mph N/A   Clear
2:55 AM 30.2 °F 18.9 °F 8.6 °F 40% 30.16 in 10.0 mi NNW 16.1 mph 21.9 mph N/A   Clear
3:15 AM 28.4 °F 18.0 °F 8.6 °F 43% 30.16 in 10.0 mi North 12.7 mph 23.0 mph N/A   Clear
3:35 AM 28.4 °F 18.0 °F 8.6 °F 43% 30.17 in 10.0 mi North 12.7 mph 24.2 mph N/A   Clear
3:55 AM 28.4 °F 18.0 °F 8.6 °F 43% 30.17 in 10.0 mi NNW 12.7 mph 20.7 mph N/A   Clear
4:15 AM 26.6 °F 16.8 °F 8.6 °F 47% 30.18 in 10.0 mi NNW 10.4 mph 20.7 mph N/A   Clear
4:35 AM 26.6 °F 17.5 °F 10.4 °F 51% 30.19 in 10.0 mi North 9.2 mph 18.4 mph N/A   Clear
4:55 AM 26.6 °F 15.7 °F 8.6 °F 47% 30.20 in 10.0 mi North 12.7 mph 23.0 mph N/A   Clear
5:15 AM 26.6 °F 14.7 °F 8.6 °F 47% 30.21 in 10.0 mi North 15.0 mph 21.9 mph N/A   Clear
5:35 AM 24.8 °F 14.0 °F 6.8 °F 46% 30.21 in 10.0 mi North 11.5 mph 17.3 mph N/A   Clear
5:55 AM 24.8 °F 14.6 °F 8.6 °F 50% 30.22 in 10.0 mi North 10.4 mph 17.3 mph N/A   Clear
6:15 AM 24.8 °F 12.9 °F 6.8 °F 46% 30.23 in 10.0 mi North 13.8 mph 19.6 mph N/A   Clear
6:35 AM 23.0 °F 12.4 °F 6.8 °F 50% 30.24 in 10.0 mi North 10.4 mph - N/A   Clear
6:55 AM 23.0 °F 12.4 °F 6.8 °F 50% 30.25 in 10.0 mi North 10.4 mph 18.4 mph N/A   Clear
7:15 AM 23.0 °F 12.4 °F 6.8 °F 50% 30.26 in 10.0 mi North 10.4 mph - N/A   Clear
7:35 AM 24.8 °F 14.0 °F 6.8 °F 46% 30.27 in 10.0 mi North 11.5 mph 16.1 mph N/A   Clear
7:55 AM 24.8 °F 14.6 °F 6.8 °F 46% 30.28 in 10.0 mi North 10.4 mph - N/A   Clear
8:15 AM 24.8 °F 14.0 °F 6.8 °F 46% 30.28 in 10.0 mi NNW 11.5 mph 16.1 mph N/A   Clear
8:35 AM 24.8 °F 15.3 °F 6.8 °F 46% 30.29 in 10.0 mi North 9.2 mph 18.4 mph N/A   Clear
8:55 AM - - - N/A% - - North - - N/A   Unknown
9:15 AM - - - N/A% - - North - - N/A   Unknown
9:35 AM - - - N/A% - - North - - N/A   Unknown
9:55 AM 26.6 °F 16.8 °F 6.8 °F 43% 30.29 in 10.0 mi North 10.4 mph 17.3 mph N/A   Unknown
10:15 AM 28.4 °F 19.1 °F 6.8 °F 40% 30.29 in 10.0 mi North 10.4 mph 17.3 mph N/A   Clear
10:35 AM 28.4 °F 17.0 °F 6.8 °F 40% 30.28 in 10.0 mi North 15.0 mph 23.0 mph N/A   Clear
10:55 AM 28.4 °F 20.4 °F 6.8 °F 40% 30.28 in 10.0 mi NNW 8.1 mph - N/A   Clear
11:15 AM 28.4 °F 19.1 °F 5.0 °F 37% 30.28 in 10.0 mi NW 10.4 mph - N/A   Clear
11:35 AM 28.4 °F 18.5 °F 6.8 °F 40% 30.27 in 10.0 mi NW 11.5 mph 17.3 mph N/A   Clear
11:55 AM 30.2 °F 21.9 °F 6.8 °F 37% 30.27 in 10.0 mi NW 9.2 mph - N/A   Clear
12:15 PM 30.2 °F 21.3 °F 5.0 °F 34% 30.26 in 10.0 mi NW 10.4 mph 17.3 mph N/A   Clear
12:35 PM 30.2 °F 21.9 °F 6.8 °F 37% 30.25 in 10.0 mi NW 9.2 mph 17.3 mph N/A   Clear
12:55 PM 30.2 °F 22.6 °F 8.6 °F 40% 30.24 in 10.0 mi WNW 8.1 mph 16.1 mph N/A   Clear
1:15 PM 30.2 °F 21.3 °F 8.6 °F 40% 30.24 in 10.0 mi WNW 10.4 mph 18.4 mph N/A   Clear
1:35 PM 30.2 °F 20.2 °F 8.6 °F 40% 30.23 in 10.0 mi WNW 12.7 mph 20.7 mph N/A   Clear
1:55 PM 32.0 °F 24.2 °F 8.6 °F 38% 30.22 in 10.0 mi WNW 9.2 mph 19.6 mph N/A   Clear
2:15 PM 32.0 °F 23.6 °F 8.6 °F 38% 30.21 in 10.0 mi WNW 10.4 mph 17.3 mph N/A   Clear
2:35 PM 33.8 °F 25.8 °F 10.4 °F 38% 30.20 in 10.0 mi WNW 10.4 mph 19.6 mph N/A   Clear
2:55 PM 33.8 °F 25.3 °F 8.6 °F 35% 30.20 in 10.0 mi West 11.5 mph 20.7 mph N/A   Clear
3:15 PM 33.8 °F 25.3 °F 10.4 °F 38% 30.20 in 10.0 mi WNW 11.5 mph 17.3 mph N/A   Clear
3:35 PM 33.8 °F 25.3 °F 10.4 °F 38% 30.18 in 10.0 mi WNW 11.5 mph - N/A   Clear
3:55 PM 33.8 °F 27.0 °F 10.4 °F 38% 30.17 in 10.0 mi WNW 8.1 mph 18.4 mph N/A   Clear
4:15 PM 33.8 °F 25.3 °F 8.6 °F 35% 30.17 in 10.0 mi West 11.5 mph - N/A   Clear
4:35 PM 33.8 °F 28.6 °F 10.4 °F 38% 30.16 in 10.0 mi WNW 5.8 mph - N/A   Clear
4:55 PM 33.8 °F 25.8 °F 10.4 °F 38% 30.16 in 10.0 mi WNW 10.4 mph - N/A   Clear
5:15 PM 33.8 °F 30.8 °F 8.6 °F 35% 30.16 in 10.0 mi WNW 3.5 mph - N/A   Clear
5:35 PM 33.8 °F 25.8 °F 10.4 °F 38% 30.16 in 10.0 mi West 10.4 mph - N/A   Clear
5:55 PM 33.8 °F 27.0 °F 10.4 °F 38% 30.17 in 10.0 mi WNW 8.1 mph - N/A   Clear
6:15 PM 33.8 °F 27.7 °F 10.4 °F 38% 30.17 in 10.0 mi NW 6.9 mph - N/A   Scattered Clouds
6:35 PM 33.8 °F 27.7 °F 10.4 °F 38% 30.17 in 10.0 mi WNW 6.9 mph - N/A   Partly Cloudy
6:55 PM 33.8 °F 30.8 °F 8.6 °F 35% 30.17 in 10.0 mi WNW 3.5 mph - N/A   Clear
7:15 PM 33.8 °F - 8.6 °F 35% 30.18 in 10.0 mi Calm Calm - N/A   Clear
7:35 PM 32.0 °F 27.5 °F 8.6 °F 38% 30.18 in 10.0 mi WSW 4.6 mph - N/A   Clear
7:55 PM 30.2 °F 25.4 °F 10.4 °F 44% 30.18 in 10.0 mi SW 4.6 mph - N/A   Clear
8:15 PM 30.2 °F 24.3 °F 10.4 °F 44% 30.19 in 10.0 mi SW 5.8 mph - N/A   Clear
8:35 PM 30.2 °F 21.3 °F 12.2 °F 47% 30.19 in 10.0 mi South 10.4 mph - N/A   Clear
8:55 PM 30.2 °F 23.4 °F 17.6 °F 60% 30.20 in 10.0 mi SSW 6.9 mph - N/A   Clear
9:15 PM 30.2 °F 23.4 °F 17.6 °F 60% 30.20 in 10.0 mi South 6.9 mph - N/A   Clear
9:35 PM 28.4 °F 24.6 °F 17.6 °F 64% 30.20 in 10.0 mi South 3.5 mph - N/A   Clear
9:55 PM 28.4 °F 24.6 °F 17.6 °F 64% 30.19 in 10.0 mi South 3.5 mph - N/A   Clear
10:15 PM 28.4 °F - 17.6 °F 64% 30.20 in 10.0 mi Calm Calm - N/A   Clear
10:35 PM 28.4 °F - 17.6 °F 64% 30.19 in 10.0 mi Calm Calm - N/A   Clear
10:55 PM 28.4 °F - 17.6 °F 64% 30.19 in 10.0 mi Calm Calm - N/A   Clear
11:15 PM 26.6 °F - 17.6 °F 69% 30.19 in 10.0 mi Calm Calm - N/A   Clear
11:35 PM 26.6 °F - 17.6 °F 69% 30.19 in 10.0 mi Calm Calm - N/A   Clear
11:55 PM 26.6 °F - 17.6 °F 69% 30.18 in 10.0 mi Calm Calm - N/A   Clear